DW5321 Paradera AW current weather conditions

sailwx.info

Wind from 105 at 6 knots gusting 12

Air temperature 27.8° C
Dewpoint 26.2° C

Last reported at 2015-Aug-31 05:52 UTC.
Time now 2015-Aug-31 06:47 UTC

Location: N 12°33' W 070°00'.
View on Google Maps.

See reports from other nearby stations

  
Tides and Currents Weather Stations Pressure Air Temp Water Temp Dewpoint Dewpoint Depression Visibility Wind Speed Wind Dir Waves Ship Positions
date/time (UTC)wind fromknots sea level pressurealtimeterstation pressurevisibilityair tempwater tempwave heightnotes
2015-Aug-31 05:52 105 6 gusting 12 27.8
2015-Aug-31 05:36 148 6 gusting 14 27.8
2015-Aug-31 05:21 096 9 gusting 14 27.8
2015-Aug-31 05:06 101 9 gusting 17 27.8
2015-Aug-31 04:51 049 8 gusting 14 27.8
2015-Aug-31 04:36 099 8 gusting 14 27.8
2015-Aug-31 04:21 125 9 gusting 17 27.8
2015-Aug-31 04:06 113 8 gusting 15 27.8
2015-Aug-31 03:51 063 8 gusting 14 27.8
2015-Aug-31 03:36 127 8 gusting 15 27.8
2015-Aug-31 03:21 075 10 gusting 16 27.8
2015-Aug-31 03:06 105 7 gusting 14 27.8
2015-Aug-31 02:51 101 10 gusting 17 27.8
2015-Aug-31 02:36 094 6 gusting 13 27.8
2015-Aug-31 02:21 051 6 gusting 13 28.3
2015-Aug-31 02:06 097 4 gusting 13 28.3
2015-Aug-31 01:51 066 9 gusting 14 28.3
2015-Aug-31 01:36 096 7 gusting 14 28.3
2015-Aug-31 01:21 088 8 gusting 15 28.3
2015-Aug-31 01:06 060 6 gusting 13 28.3
2015-Aug-31 00:51 095 10 gusting 15 28.3
2015-Aug-31 00:36 075 5 gusting 12 28.3
2015-Aug-31 00:21 044 5 gusting 12 28.3
2015-Aug-31 00:06 084 8 gusting 13 28.3
2015-Aug-30 23:51 065 11 gusting 16 28.3
2015-Aug-30 23:36 077 7 gusting 13 28.3
2015-Aug-30 23:21 064 8 gusting 13 28.3
2015-Aug-30 23:06 091 7 gusting 14 28.9
2015-Aug-30 22:51 070 6 gusting 13 28.9
2015-Aug-30 22:36 083 9 gusting 17 28.9
2015-Aug-30 22:21 063 6 gusting 15 29.4
2015-Aug-30 22:06 059 10 gusting 16 29.4
2015-Aug-30 21:51 089 10 gusting 17 29.4
2015-Aug-30 21:36 072 7 gusting 19 30.0
2015-Aug-30 21:21 060 11 gusting 19 30.0
2015-Aug-30 21:06 107 9 gusting 15 30.6
2015-Aug-30 20:51 133 12 gusting 19 30.0
2015-Aug-30 20:36 096 10 gusting 19 30.6
2015-Aug-30 20:21 071 10 gusting 19 30.6
2015-Aug-30 20:06 117 13 gusting 20 30.6
2015-Aug-30 19:51 046 12 gusting 19 30.6
2015-Aug-30 19:36 072 11 gusting 20 30.6
2015-Aug-30 19:21 047 12 gusting 18 30.6
2015-Aug-30 19:06 083 11 gusting 21 31.1
2015-Aug-30 18:51 107 13 gusting 19 31.7
2015-Aug-30 18:36 124 11 gusting 18 32.2
2015-Aug-30 18:21 053 9 gusting 14 32.2
2015-Aug-30 18:06 124 10 gusting 19 31.7
2015-Aug-30 17:51 066 11 gusting 17 31.7
2015-Aug-30 17:36 124 11 gusting 18 32.2
2015-Aug-30 17:21 079 9 gusting 15 32.2
2015-Aug-30 17:06 120 12 31.7
2015-Aug-30 16:51 020 10 gusting 16 32.2
2015-Aug-30 16:36 117 10 gusting 19 31.7
2015-Aug-30 16:21 094 11 gusting 20 31.1
2015-Aug-30 16:06 108 14 gusting 20 31.1
2015-Aug-30 15:51 120 10 gusting 17 31.7
2015-Aug-30 15:36 108 11 gusting 18 31.1
2015-Aug-30 15:21 112 11 gusting 18 31.1
2015-Aug-30 15:06 134 9 gusting 21 31.1
2015-Aug-30 14:51 048 9 gusting 15 30.6
2015-Aug-30 14:35 129 12 gusting 18 30.6
2015-Aug-30 14:20 105 10 gusting 21 30.6
2015-Aug-30 14:05 114 11 gusting 17 30.0
2015-Aug-30 13:50 132 10 gusting 13 30.0
2015-Aug-30 13:35 061 11 gusting 20 30.0
2015-Aug-30 13:20 098 10 gusting 18 29.4
2015-Aug-30 13:05 105 7 gusting 18 29.4
2015-Aug-30 12:50 135 9 gusting 17 29.4
2015-Aug-30 12:35 117 8 gusting 15 28.9
2015-Aug-30 12:20 111 9 gusting 15 28.9
2015-Aug-30 12:05 088 6 gusting 14 28.3
2015-Aug-30 11:50 114 7 gusting 12 28.3
2015-Aug-30 11:35 071 5 gusting 12 28.3
2015-Aug-30 11:20 101 6 gusting 10 27.8
2015-Aug-30 11:05 092 4 gusting 8 27.8
2015-Aug-30 10:50 111 5 gusting 10 27.2
2015-Aug-30 10:35 101 3 gusting 7 27.2
2015-Aug-30 10:20 089 6 gusting 13 27.2
2015-Aug-30 10:05 098 6 gusting 11 27.2
2015-Aug-30 09:50 101 6 gusting 10 27.2
2015-Aug-30 09:35 097 6 gusting 13 27.2
2015-Aug-30 09:20 099 5 gusting 11 27.2
2015-Aug-30 09:05 096 6 gusting 13 27.2
2015-Aug-30 08:50 104 6 gusting 12 27.8
2015-Aug-30 08:35 092 6 gusting 12 27.8
2015-Aug-30 08:20 101 6 gusting 10 27.8
2015-Aug-30 08:05 115 6 gusting 13 27.8
2015-Aug-30 07:50 117 6 gusting 13 27.8
2015-Aug-30 07:35 079 6 gusting 10 27.8
2015-Aug-30 07:20 098 8 gusting 14 27.8
2015-Aug-30 07:05 104 7 gusting 13 27.8
2015-Aug-30 06:50 110 7 gusting 12 27.8
2015-Aug-30 06:35 105 6 gusting 10 27.8
2015-Aug-30 06:20 083 8 gusting 13 27.8
2015-Aug-30 06:05 104 5 gusting 12 27.8
2015-Aug-30 05:50 108 6 gusting 14 27.8
2015-Aug-30 05:35 120 7 gusting 14 27.8
2015-Aug-30 05:20 104 7 gusting 14 27.8
2015-Aug-30 05:05 068 5 gusting 14 27.8
2015-Aug-30 04:50 071 10 gusting 14 27.8
2015-Aug-30 04:35 057 9 gusting 15 27.8
2015-Aug-30 04:20 097 10 gusting 16 27.8
2015-Aug-30 04:05 146 6 gusting 17 27.8
2015-Aug-30 03:50 105 7 gusting 15 27.8
2015-Aug-30 03:35 101 8 gusting 14 27.8
2015-Aug-30 03:20 099 7 gusting 13 27.8
2015-Aug-30 03:05 070 7 gusting 15 27.8
2015-Aug-30 02:50 098 9 gusting 14 27.8
2015-Aug-30 02:35 079 8 gusting 13 27.8
2015-Aug-30 02:20 069 10 gusting 16 27.8
2015-Aug-30 02:05 084 11 gusting 17 27.8
2015-Aug-30 01:53 073 10 gusting 15 27.8
2015-Aug-30 01:34 079 8 gusting 15 27.8
2015-Aug-30 01:19 078 9 gusting 19 28.3
2015-Aug-30 01:04 120 9 gusting 15 27.8
2015-Aug-30 00:49 132 8 gusting 17 27.8
2015-Aug-30 00:34 070 9 gusting 14 28.3
2015-Aug-30 00:19 064 7 gusting 16 28.3
2015-Aug-30 00:04 077 9 gusting 18 28.3
2015-Aug-29 23:49 084 10 gusting 16 28.3
2015-Aug-29 23:34 146 10 gusting 13 28.3
2015-Aug-29 23:20 084 8 gusting 16 28.3
2015-Aug-29 23:04 092 9 gusting 20 28.3
2015-Aug-29 22:49 111 11 gusting 16 28.9
2015-Aug-29 22:34 071 7 gusting 16 28.9
2015-Aug-29 22:19 046 10 gusting 17 28.9
2015-Aug-29 22:04 085 9 gusting 16 29.4
2015-Aug-29 21:49 056 10 gusting 16 29.4
2015-Aug-29 21:34 074 9 gusting 17 30.0
2015-Aug-29 21:19 082 7 gusting 16 30.0
2015-Aug-29 21:04 104 11 gusting 19 30.0
2015-Aug-29 20:49 084 10 gusting 17 30.0
2015-Aug-29 20:34 073 9 gusting 17 30.0
2015-Aug-29 20:19 060 11 gusting 17 30.0
2015-Aug-29 20:05 087 8 gusting 19 30.6
2015-Aug-29 19:49 091 9 gusting 19 30.0
2015-Aug-29 19:34 105 11 gusting 21 30.6
2015-Aug-29 19:19 104 11 gusting 21 30.6
2015-Aug-29 19:04 086 13 gusting 20 30.6
2015-Aug-29 18:50 104 10 gusting 19 30.6
2015-Aug-29 18:34 113 9 gusting 16 31.1
2015-Aug-29 18:19 135 8 gusting 20 31.1
2015-Aug-29 18:04 091 8 gusting 15 31.1
2015-Aug-29 17:49 073 8 gusting 18 31.1
2015-Aug-29 17:34 075 7 gusting 15 31.1
2015-Aug-29 17:19 113 10 gusting 21 30.6
2015-Aug-29 17:04 084 11 gusting 21 31.1
2015-Aug-29 16:50 108 11 gusting 15 31.1
2015-Aug-29 16:34 083 9 gusting 18 31.1
2015-Aug-29 16:19 088 10 gusting 16 31.1
2015-Aug-29 16:04 105 11 gusting 19 31.1
2015-Aug-29 15:49 071 10 gusting 19 31.1
2015-Aug-29 15:34 031 11 gusting 20 31.1
2015-Aug-29 15:19 086 10 gusting 18 30.6
2015-Aug-29 15:04 071 9 gusting 21 31.1
2015-Aug-29 14:49 041 9 gusting 21 31.1
2015-Aug-29 14:34 101 12 gusting 22 30.6
2015-Aug-29 14:19 105 12 gusting 17 30.0
2015-Aug-29 14:04 136 12 gusting 24 29.4
2015-Aug-29 13:50 120 13 gusting 23 29.4
2015-Aug-29 13:34 088 15 gusting 20 30.0
2015-Aug-29 13:20 077 9 gusting 20 30.0
2015-Aug-29 13:04 111 13 gusting 19 29.4
2015-Aug-29 12:49 108 12 gusting 22 29.4
2015-Aug-29 12:34 092 13 gusting 20 29.4
2015-Aug-29 12:18 084 14 gusting 22 28.9
2015-Aug-29 12:03 105 9 gusting 20 28.3
2015-Aug-29 11:48 107 11 gusting 19 28.3
2015-Aug-29 11:33 121 9 gusting 19 28.3
2015-Aug-29 11:18 121 7 gusting 18 28.3
2015-Aug-29 11:03 120 10 gusting 16 28.3
2015-Aug-29 10:48 082 10 gusting 15 28.3
2015-Aug-29 10:33 083 11 gusting 19 28.3
2015-Aug-29 10:18 111 13 gusting 18 28.3
2015-Aug-29 10:03 109 12 gusting 24 28.3
2015-Aug-29 09:49 117 13 gusting 19 28.3
2015-Aug-29 09:33 101 11 gusting 17 28.3
2015-Aug-29 09:18 105 11 gusting 18 28.3
2015-Aug-29 09:03 114 12 gusting 19 27.8
2015-Aug-29 08:48 128 9 gusting 19 28.3
2015-Aug-29 08:33 094 12 gusting 19 27.8
2015-Aug-29 08:18 091 8 gusting 19 27.8
2015-Aug-29 08:03 129 12 gusting 19 27.8
2015-Aug-29 07:48 108 13 gusting 19 27.8
2015-Aug-29 07:33 092 8 gusting 16 27.8
2015-Aug-29 07:18 108 13 gusting 18 28.3
2015-Aug-29 07:03 117 13 gusting 21 28.3
2015-Aug-29 06:48 097 13 gusting 19 28.3
2015-Aug-29 06:33 101 11 gusting 19 28.3
2015-Aug-29 06:18 107 14 gusting 21 28.3
2015-Aug-29 06:03 100 15 gusting 21 28.3